Hourly Weather Roundup
Issued by NWS Central Illinois

Home | Current Version | Previous Version | Text Only | Print | Product List | Glossary On
Versions: 1 2 3 4 5 6 7 8 9 10 11 12 13 14 15 16 17 18 19 20 21 22 23 24 25 26 27 28 29 30 31 32 33 34 35 36 37 38 39 40 41 42 43 44 45 46 47 48 49 50
000
NZUS43 KILX 211310
HWRILX

Area Weather Roundup
National Weather Service Lincoln IL
800 AM CDT THU SEP 21 2017

NOTE:  "FAIR" indicates few or no clouds below 12,000 feet, with
       no sigificant weather and/or obstructions to visibility.


CITY           SKY/WX    TMP DP  RH WIND       PRES   REMARKS
Bloomington    CLOUDY    73  71  93 S7        30.04R
Champaign      PTSUNNY   75  70  84 SW7       30.05R
Danville       MOSUNNY   70  69  99 CALM      30.02R FOG
Decatur        CLOUDY    74  70  87 SW3       30.04R
Effingham      CLOUDY    74  73  98 SE3       30.06R
Flora          SUNNY     73  71  95 S3        30.05S FOG
Galesburg      CLOUDY    69  65  86 SW6       30.03S
Jacksonville   CLOUDY    71  69  92 CALM      30.02S
Lacon          CLOUDY    71  65  81 S3        30.00R
Lawrenceville  SUNNY     72  71  97 SE3       30.07R FOG
Litchfield     CLOUDY    71  69  96 SE5       30.03R
$$


CITY           SKY/WX    TMP DP  RH WIND       PRES   REMARKS
Lincoln        CLOUDY    72  72  99 CALM      30.03R FOG
Macomb         CLOUDY    68  66  92 NW3       30.05R
Mattoon        CLOUDY    74  72  93 S9        30.04R
Mt Carmel AP   SUNNY     72  70  95 CALM      30.06R
Olney-Noble AP SUNNY     72  69  92 CALM      30.05F FOG
Paris AP         N/A     72  71  96 SE3       30.06R
Peoria         CLOUDY    72  67  84 W5        30.03R
Pontiac        CLOUDY    74  73  99 SW3       30.02R
Rantoul        MOSUNNY   73  71  94 CALM      30.05R FOG
Robinson       SUNNY     70  70  99 CALM      30.07R FOG
Springfield    CLOUDY    74  71  91 S3        30.03R
Taylorville    PTSUNNY   72  71  96 CALM      30.04R
$$

...REGIONAL REPORTS...


CITY           SKY/WX    TMP DP  RH WIND       PRES   REMARKS
Chicago O`Hare CLOUDY    76  68  76 S6        29.99R
Kankakee       MOSUNNY   73  70  90 CALM      30.03R
Moline         CLOUDY    75  60  59 SW15      29.95F
Mount Sterling CLOUDY    70  67  89 CALM      30.03R
Mount Vernon     N/A     73  71  93 CALM      30.06R
Pittsfield     CLOUDY    73  71  95 NE5       30.04R
Quincy         CLOUDY    74  67  78 E10       30.02R
Rockford       CLOUDY    70  68  93 SE6       30.01R
$$


CITY           SKY/WX    TMP DP  RH WIND       PRES   REMARKS
Burlington     CLOUDY    70  65  84 W7        30.02F
Cedar Rapids   CLOUDY    71  64  78 S14G22    29.96R
Des Moines     CLOUDY    70  68  93 CALM      29.89F
Kirksville     CLOUDY    71  67  87 E17G26    30.03R
Ottumwa        TSTM      69  68  96 SE18G25   29.99R
St Louis       CLOUDY    77  71  82 S5        30.02R
$$


CITY           SKY/WX    TMP DP  RH WIND       PRES   REMARKS
Terre Haute    SUNNY     72  69  90 SE3       30.06R FOG
Evansville     SUNNY     73  70  90 CALM      30.07R FOG
Indianapolis   PTSUNNY   73  70  90 S3        30.08R
Lafayette      MOSUNNY   72  71  97 CALM      30.05R
Madison        FOG       70  70 100 N5        30.00R VSB 1/4
Milwaukee      CLOUDY    74  68  81 NE9       30.01R
$$






USA.gov is the U.S. government's official web portal to all federal, state and local government web resources and services.